1534975200.55,24782,22.25,74630.8,6.05,-11.77,-14.05,0,*75
1534975201.8,24783,22.25,74634.3,6.05,-11.77,-14.19,0,*79
1534975203.06,24784,22.25,74634.8,6.07,-11.73,-14.01,0,*71
1534975204.34,24785,22.25,74630.5,6.05,-11.77,-14.05,0,*72
1534975205.6,24786,22.25,74634.5,6.05,-11.93,-14.19,0,*76
1534975206.85,24787,22.25,74634.5,6.05,-12.15,-14.33,0,*72
1534975208.11,24788,22.25,74628.0,6.05,-12.15,-14.29,0,*76
1534975209.36,24789,22.25,74630.0,6.05,-12.07,-14.33,0,*7F
1534975210.62,24790,22.25,74630.3,6.05,-12.15,-14.33,0,*74
1534975211.85,24791,22.25,74628.5,6.05,-12.21,-14.33,0,*72
1534975213.07,24792,22.25,74630.3,6.03,-12.21,-14.37,0,*73
1534975214.27,24793,22.25,74630.5,6.03,-12.25,-14.37,0,*76
1534975215.49,24794,22.25,74628.5,6.03,-12.21,-14.37,0,*75
1534975216.72,24795,22.25,74626.8,6.03,-12.39,-14.51,0,*7D
1534975217.96,24796,22.25,74626.0,6.03,-12.53,-14.65,0,*75
1534975219.21,24797,22.25,74624.8,6.05,-12.47,-14.51,0,*70
1534975220.5,24798,22.25,74624.0,6.01,-12.53,-14.55,0,*7A
1534975221.75,24799,22.25,74622.0,6.01,-12.47,-14.51,0,*7A
1534975223.01,24800,22.25,74624.3,6.01,-12.47,-14.47,0,*72
1534975224.3,24801,22.19,74618.3,6.01,-12.53,-14.51,0,*71
1534975225.56,24802,22.25,74620.3,6.01,-12.47,-14.47,0,*70
1534975226.81,24803,22.19,74616.0,6.01,-12.53,-14.37,0,*73
1534975228.06,24804,22.25,74618.3,6.01,-12.61,-14.33,0,*71
1534975229.3,24805,22.25,74616.3,5.99,-12.57,-14.23,0,*76
1534975230.56,24806,22.25,74618.8,5.99,-12.53,-13.97,0,*79
1534975231.79,24807,22.25,74620.5,5.99,-12.29,-13.61,0,*7C
1534975233.02,24808,22.25,74620.0,5.97,-12.47,-13.43,0,*75
1534975234.22,24809,22.25,74618.3,5.99,-12.39,-13.11,0,*74
1534975235.48,24810,22.19,74616.5,5.99,-12.15,-12.83,0,*78
1534975236.71,24811,22.19,74620.0,5.97,-12.03,-12.43,0,*7C
1534975237.96,24812,22.25,74622.3,5.99,-11.81,-11.97,0,*72
1534975239.24,24813,22.25,74624.0,5.97,-11.51,-11.59,0,*72
1534975240.47,24814,22.25,74626.0,5.97,-11.11,-11.19,0,*75
1534975241.72,24815,22.25,74622.5,5.97,-10.93,-10.79,0,*78
1534975242.98,24816,22.25,74626.0,5.97,-10.63,-10.49,0,*77
1534975244.2,24817,22.25,74628.5,5.99,-10.35,-10.15,0,*72
1534975245.42,24818,22.25,74624.0,5.97,-10.09,-9.71,0,*46
1534975246.67,24819,22.25,74626.8,5.97,-9.79,-9.45,0,*7F
1534975247.94,24820,22.19,74626.0,5.97,-9.45,-9.11,0,*7B
1534975249.19,24821,22.25,74626.8,5.97,-9.11,-8.85,0,*77
1534975250.41,24822,22.19,74624.3,5.99,-8.85,-8.81,0,*72
1534975251.6,24823,22.25,74626.8,5.99,-8.55,-8.55,0,*77
1534975252.81,24824,22.25,74624.8,5.97,-8.21,-8.33,0,*7D
1534975254.03,24825,22.25,74626.5,5.97,-7.83,-8.29,0,*70
1534975255.24,24826,22.25,74630.5,5.97,-7.53,-8.17,0,*73
1534975256.48,24827,22.25,74628.0,5.97,-7.15,-8.03,0,*75
1534975257.7,24828,22.25,74624.3,5.95,-6.85,-8.03,0,*70
1534975258.9,24829,22.25,74628.5,5.95,-6.55,-8.17,0,*79
1534975260.11,24830,22.25,74628.5,5.95,-6.23,-8.29,0,*7D
1534975261.36,24831,22.25,74630.8,5.97,-5.97,-8.51,0,*7D
1534975262.6,24832,22.25,74630.8,5.97,-5.77,-8.85,0,*79
1534975263.85,24833,22.25,74628.3,5.97,-5.51,-9.11,0,*70
1534975265.09,24834,22.19,74628.0,5.97,-5.39,-9.57,0,*7B
1534975266.34,24835,22.19,74630.3,5.97,-5.27,-10.23,0,*4E
1534975267.62,24836,22.25,74630.5,5.97,-5.03,-10.63,0,*4F
1534975268.87,24837,22.25,74632.8,5.97,-5.07,-11.19,0,*46
1534975270.15,24838,22.25,74632.5,5.97,-5.19,-11.63,0,*4B
1534975271.4,24839,22.19,74630.5,5.95,-5.19,-11.89,0,*4C
1534975272.64,24840,22.25,74634.3,5.95,-5.31,-12.29,0,*41
1534975273.88,24841,22.25,74632.3,5.95,-5.55,-12.71,0,*4F
1534975275.15,24842,22.25,74634.8,5.97,-5.93,-13.01,0,*42
1534975276.42,24843,22.25,74632.8,5.97,-6.23,-13.33,0,*4A
1534975277.65,24844,22.25,74632.3,5.97,-6.47,-13.55,0,*4F
1534975278.89,24845,22.19,74628.5,5.97,-6.85,-13.79,0,*4E
1534975280.13,24846,22.19,74630.3,5.97,-7.11,-13.79,0,*41
1534975281.37,24847,22.25,74634.8,5.97,-7.49,-13.87,0,*4C
1534975282.59,24848,22.25,74634.8,5.99,-7.87,-13.83,0,*4B
1534975283.86,24849,22.19,74630.0,5.97,-8.03,-13.79,0,*42
1534975285.08,24850,22.25,74630.5,5.97,-8.37,-13.65,0,*40
1534975286.3,24851,22.25,74630.0,5.97,-8.63,-13.55,0,*43
1534975287.52,24852,22.25,74628.0,5.99,-8.81,-13.43,0,*45
1534975288.78,24853,22.25,74630.0,5.99,-9.11,-13.37,0,*4F
1534975290.0,24854,22.25,74628.0,5.99,-9.41,-13.43,0,*4E
1534975291.22,24855,22.25,74626.0,5.97,-9.67,-13.43,0,*45
1534975292.44,24856,22.25,74626.3,5.97,-9.79,-13.43,0,*49
1534975293.68,24857,22.25,74622.3,5.97,-9.83,-13.43,0,*4D
1534975294.89,24858,22.25,74620.8,5.97,-10.05,-13.47,0,*70
1534975296.12,24859,22.19,74620.8,5.97,-10.15,-13.65,0,*70
1534975297.39,24860,22.25,74620.5,5.97,-10.41,-13.79,0,*76
1534975298.61,24861,22.19,74620.0,5.97,-10.49,-13.93,0,*7B
1534975299.9,24862,22.25,74618.8,5.97,-10.67,-14.05,0,*7C
1534975301.16,24863,22.19,74618.8,5.97,-10.79,-14.15,0,*73
1534975302.39,24864,22.19,74618.3,5.95,-10.79,-14.15,0,*76
1534975303.62,24865,22.25,74616.5,5.93,-11.01,-14.33,0,*7B
1534975304.86,24866,22.25,74616.0,5.95,-11.07,-14.33,0,*78
1534975306.08,24867,22.19,74612.5,5.95,-11.19,-14.43,0,*71
1534975307.32,24868,22.25,74612.8,5.95,-11.45,-14.47,0,*73
1534975308.61,24869,22.25,74614.5,5.93,-11.63,-14.51,0,*77
1534975309.9,24870,22.25,74612.3,5.93,-11.77,-14.51,0,*7A
1534975311.18,24871,22.25,74614.5,5.93,-11.89,-14.47,0,*7D
1534975312.44,24872,22.19,74612.8,5.93,-11.81,-14.23,0,*74
1534975313.7,24873,22.25,74618.3,5.93,-11.67,-14.23,0,*7D
1534975314.99,24874,22.25,74616.8,5.93,-11.67,-14.05,0,*7E
1534975316.26,24875,22.25,74618.0,5.93,-11.51,-14.05,0,*7A
1534975317.55,24876,22.19,74612.5,5.93,-11.29,-13.61,0,*73
1534975318.75,24877,22.19,74618.5,5.91,-11.15,-13.47,0,*7B
1534975319.96,24878,22.25,74618.3,5.91,-11.15,-13.51,0,*73
1534975321.19,24879,22.19,74618.0,5.91,-10.93,-13.33,0,*79
1534975322.43,24880,22.19,74616.3,5.91,-10.71,-13.19,0,*7B
1534975323.67,24881,22.19,74622.8,5.91,-10.67,-13.19,0,*7D
1534975324.91,24882,22.25,74622.3,5.93,-10.45,-13.19,0,*7C
1534975326.14,24883,22.19,74622.5,5.93,-10.45,-13.23,0,*74
1534975327.39,24884,22.19,74620.3,5.93,-10.71,-13.47,0,*76
1534975328.66,24885,22.19,74622.3,5.91,-10.67,-13.37,0,*75
1534975329.91,24886,22.25,74624.3,5.93,-10.57,-13.37,0,*77
1534975331.13,24887,22.25,74626.3,5.93,-10.53,-13.47,0,*75
1534975332.36,24888,22.19,74626.8,5.93,-10.57,-13.51,0,*79
1534975333.59,24889,22.19,74624.5,5.93,-10.53,-13.51,0,*7C
1534975334.79,24890,22.25,74626.8,5.91,-10.45,-13.51,0,*71
1534975336.02,24891,22.25,74628.3,5.89,-10.31,-13.51,0,*7A
1534975337.22,24892,22.19,74624.8,5.91,-10.31,-13.65,0,*77
1534975338.45,24893,22.25,74626.8,5.89,-10.45,-13.73,0,*7B
1534975339.7,24894,22.19,74624.8,5.89,-10.49,-13.97,0,*7A
1534975340.92,24895,22.19,74622.5,5.89,-10.45,-13.73,0,*7D
1534975342.17,24896,22.25,74624.5,5.89,-10.49,-13.87,0,*79
1534975343.44,24897,22.25,74624.8,5.89,-10.75,-13.87,0,*77
1534975344.64,24898,22.19,74620.0,5.91,-10.53,-13.51,0,*7E
1534975345.86,24899,22.25,74624.0,5.89,-10.85,-13.55,0,*79
1534975347.09,24900,22.25,74620.8,5.89,-11.01,-13.51,0,*71
1534975348.33,24901,22.25,74622.0,5.91,-10.93,-13.33,0,*77
1534975349.54,24902,22.19,74620.3,5.91,-11.11,-13.19,0,*77
1534975350.79,24903,22.25,74620.5,5.89,-11.07,-13.11,0,*70
1534975352.03,24904,22.19,74618.8,5.89,-11.01,-12.97,0,*7E
1534975353.26,24905,22.19,74618.3,5.91,-10.97,-12.83,0,*7D
1534975354.51,24906,22.19,74618.3,5.89,-10.85,-12.65,0,*7C
1534975355.75,24907,22.19,74616.3,5.89,-10.89,-12.65,0,*71
1534975357.0,24908,22.19,74618.3,5.89,-10.89,-12.65,0,*7E
1534975358.23,24909,22.19,74618.3,5.89,-10.89,-12.43,0,*7B
1534975359.48,24910,22.19,74616.0,5.89,-10.71,-12.29,0,*78
1534975360.77,24911,22.19,74618.3,5.89,-10.63,-12.11,0,*71
1534975362.02,24912,22.19,74616.5,5.89,-10.45,-11.93,0,*7F
1534975363.28,24913,22.19,74618.8,5.89,-10.31,-11.93,0,*7D
1534975364.52,24914,22.19,74618.3,5.89,-9.93,-11.73,0,*44
1534975365.76,24915,22.19,74618.5,5.89,-9.67,-11.67,0,*4B
1534975367.02,24916,22.25,74622.3,5.91,-9.45,-11.67,0,*41
1534975368.29,24917,22.19,74620.0,5.89,-9.37,-11.97,0,*43
1534975369.54,24918,22.25,74620.3,5.89,-9.31,-12.11,0,*47
1534975370.78,24919,22.25,74620.0,5.85,-9.37,-12.43,0,*4B
1534975372.03,24920,22.19,74620.8,5.85,-9.15,-12.21,0,*45
1534975373.27,24921,22.19,74620.8,5.85,-9.11,-12.29,0,*48
1534975374.52,24922,22.19,74620.3,5.85,-9.11,-12.21,0,*43
1534975375.79,24923,22.19,74620.0,5.85,-9.11,-11.89,0,*43
1534975377.06,24924,22.19,74622.0,5.85,-9.11,-11.51,0,*41
1534975378.28,24925,22.19,74622.0,5.83,-8.85,-10.75,0,*4D
1534975379.5,24926,22.19,74616.3,5.85,-8.75,-10.09,0,*4C
1534975380.71,24927,22.19,74618.5,5.89,-8.41,-9.23,0,*76
1534975381.92,24928,22.19,74624.3,5.89,-8.29,-8.71,0,*71
1534975383.14,24929,22.19,74624.3,5.89,-8.29,-8.37,0,*72
1534975384.4,24930,22.19,74622.3,5.89,-7.91,-7.77,0,*7D
1534975385.65,24931,22.19,74622.5,5.89,-7.61,-7.23,0,*72
1534975386.9,24932,22.19,74622.5,5.89,-6.81,-6.63,0,*7B
1534975388.11,24933,22.19,74622.5,5.91,-6.63,-6.77,0,*7A
1534975389.31,24934,22.19,74626.3,5.91,-6.51,-6.77,0,*7C
1534975390.51,24935,22.25,74628.3,5.91,-6.09,-6.77,0,*70
1534975391.74,24936,22.19,74624.3,5.91,-5.65,-6.59,0,*76
1534975392.98,24937,22.19,74626.8,5.89,-5.23,-6.85,0,*7D
1534975394.19,24938,22.19,74626.3,5.91,-4.69,-6.89,0,*78
1534975395.43,24939,22.19,74624.3,5.89,-4.61,-7.35,0,*7E
1534975396.65,24940,22.19,74626.5,5.91,-4.53,-7.69,0,*71
1534975397.86,24941,22.25,74630.8,5.91,-4.45,-8.11,0,*77
1534975399.06,24942,22.19,74624.8,5.91,-4.41,-8.21,0,*73
1534975400.29,24943,22.19,74624.0,5.93,-4.21,-8.37,0,*71
1534975401.54,24944,22.19,74624.3,5.93,-4.13,-8.51,0,*77
1534975402.75,24945,22.19,74624.5,5.91,-4.13,-8.81,0,*79
1534975403.98,24946,22.19,74626.0,5.93,-4.05,-9.01,0,*76
1534975405.19,24947,22.19,74626.5,5.93,-4.13,-9.31,0,*73
1534975406.42,24948,22.19,74626.3,5.93,-4.13,-9.75,0,*7C
1534975407.65,24949,22.19,74628.3,5.93,-4.29,-10.31,0,*4C
1534975408.88,24950,22.19,74626.8,5.95,-4.41,-10.79,0,*40
1534975410.12,24951,22.19,74626.8,5.95,-4.73,-11.33,0,*4F
1534975411.38,24952,22.19,74628.5,5.95,-4.89,-11.63,0,*4C
1534975412.63,24953,22.19,74624.8,5.95,-5.07,-11.93,0,*45
1534975413.89,24954,22.19,74624.5,5.95,-5.31,-12.15,0,*4A
1534975415.09,24955,22.19,74628.8,5.95,-5.55,-12.47,0,*4E
1534975416.3,24956,22.19,74630.3,5.95,-5.97,-12.89,0,*41
1534975417.52,24957,22.19,74624.5,5.93,-6.39,-13.23,0,*40
1534975418.75,24958,22.19,74624.5,5.93,-6.77,-13.51,0,*40
1534975419.98,24959,22.19,74626.5,5.95,-6.77,-13.33,0,*43
1534975421.19,24960,22.19,74624.5,5.95,-7.11,-13.43,0,*4F
1534975422.38,24961,22.19,74628.3,5.95,-7.53,-13.65,0,*4C
1534975423.61,24962,22.19,74626.3,5.93,-7.83,-13.69,0,*48
1534975424.83,24963,22.25,74624.8,5.95,-8.17,-13.87,0,*4D
1534975426.05,24964,22.19,74626.5,5.95,-8.37,-13.79,0,*49
1534975427.31,24965,22.19,74620.3,5.93,-8.67,-13.97,0,*4B
1534975428.5,24966,22.19,74622.8,5.95,-8.75,-13.93,0,*49
1534975429.7,24967,22.19,74622.3,5.95,-8.97,-13.65,0,*4D
1534975430.93,24968,22.19,74620.0,5.95,-9.15,-13.65,0,*49
1534975432.16,24969,22.19,74620.5,5.95,-9.41,-13.65,0,*49
1534975433.38,24970,22.19,74620.0,5.95,-9.67,-13.87,0,*49
1534975434.6,24971,22.19,74620.8,5.93,-10.01,-13.93,0,*73
1534975435.8,24972,22.19,74622.3,5.95,-10.05,-13.65,0,*7B
1534975437.03,24973,22.19,74620.5,5.93,-10.19,-13.93,0,*78
1534975438.26,24974,22.19,74622.8,5.93,-10.31,-13.69,0,*70
1534975439.46,24975,22.19,74622.8,5.95,-10.27,-13.65,0,*7C
1534975440.72,24976,22.19,74624.3,5.93,-10.45,-13.61,0,*79
1534975441.94,24977,22.19,74624.3,5.93,-10.53,-13.51,0,*7C
1534975443.2,24978,22.19,74626.0,5.93,-10.71,-13.55,0,*77
1534975444.43,24979,22.19,74622.8,5.95,-10.75,-13.43,0,*73
1534975445.72,24980,22.19,74624.3,5.93,-10.67,-13.33,0,*77
1534975446.95,24981,22.19,74620.5,5.93,-10.57,-13.23,0,*74
1534975448.24,24982,22.19,74622.8,5.93,-10.67,-13.33,0,*75
1534975449.53,24983,22.19,74620.0,5.93,-10.71,-13.33,0,*73
1534975450.76,24984,22.19,74626.0,5.93,-10.57,-13.23,0,*71
1534975452.0,24985,22.19,74622.3,5.93,-10.57,-13.23,0,*70
1534975453.25,24986,22.19,74626.3,5.93,-10.53,-13.33,0,*76
1534975454.5,24987,22.19,74624.3,5.93,-10.53,-13.33,0,*77
1534975455.74,24988,22.19,74622.5,5.93,-10.57,-13.23,0,*7D
1534975456.97,24989,22.19,74620.0,5.91,-10.41,-13.23,0,*79
1534975458.17,24990,22.19,74620.3,5.91,-10.45,-13.23,0,*75
1534975459.41,24991,22.19,74620.3,5.91,-10.41,-13.11,0,*71
1534975460.62,24992,22.19,74618.5,5.91,-10.35,-12.97,0,*7E
1534975461.83,24993,22.19,74618.5,5.91,-10.31,-12.93,0,*7F
1534975463.08,24994,22.19,74618.8,5.91,-10.41,-12.83,0,*7E
1534975464.31,24995,22.19,74618.3,5.91,-10.31,-12.65,0,*70
1534975465.55,24996,22.19,74618.0,5.91,-10.31,-12.53,0,*76
1534975466.78,24997,22.19,74620.3,5.91,-10.31,-12.11,0,*71
1534975468.01,24998,22.19,74618.5,5.91,-10.31,-11.93,0,*77
1534975469.25,24999,22.19,74622.0,5.91,-10.27,-11.51,0,*7F
1534975470.47,25000,22.19,74616.0,5.91,-10.31,-11.37,0,*70
1534975471.69,25001,22.19,74618.8,5.91,-10.27,-10.97,0,*7D
1534975472.9,25002,22.19,74620.8,5.91,-10.15,-10.53,0,*77
1534975474.1,25003,22.19,74618.5,5.91,-10.01,-10.09,0,*7C
1534975475.31,25004,22.19,74620.3,5.91,-9.57,-9.71,0,*77
1534975476.55,25005,22.19,74620.0,5.89,-9.41,-9.31,0,*7C
1534975477.76,25006,22.19,74618.8,5.91,-9.05,-9.01,0,*75
1534975479.0,25007,22.19,74622.8,5.91,-8.51,-8.81,0,*7D
1534975480.19,25008,22.19,74620.8,5.91,-8.21,-8.67,0,*7D
1534975481.43,25009,22.19,74624.5,5.91,-7.73,-8.81,0,*7C
1534975482.65,25010,22.19,74620.3,5.91,-7.39,-8.89,0,*72
1534975483.87,25011,22.19,74622.8,5.91,-6.93,-8.93,0,*79
1534975485.11,25012,22.19,74626.8,5.89,-6.69,-9.37,0,*79
1534975486.34,25013,22.19,74626.8,5.91,-6.51,-9.61,0,*79
1534975487.55,25014,22.19,74630.3,5.89,-6.13,-9.89,0,*77
1534975488.8,25015,22.19,74628.3,5.91,-5.69,-9.83,0,*7B
1534975490.03,25016,22.19,74628.5,5.91,-5.61,-10.27,0,*46
1534975491.27,25017,22.19,74630.3,5.91,-5.47,-10.67,0,*47
1534975492.46,25018,22.19,74628.3,5.91,-5.43,-11.01,0,*4D
1534975493.67,25019,22.19,74624.5,5.91,-5.47,-11.45,0,*48
1534975494.92,25020,22.19,74628.5,5.91,-5.31,-11.77,0,*42
1534975496.15,25021,22.19,74626.3,5.91,-5.35,-12.11,0,*44
1534975497.37,25022,22.19,74626.8,5.89,-5.51,-12.39,0,*46
1534975498.62,25023,22.19,74624.5,5.91,-5.61,-12.75,0,*45
1534975499.85,25024,22.19,74630.8,5.91,-5.81,-13.07,0,*48
1534975501.08,25025,22.19,74624.5,5.91,-5.89,-13.19,0,*4E
1534975502.33,25026,22.19,74630.5,5.89,-6.19,-13.43,0,*41
1534975503.53,25027,22.19,74628.0,5.91,-6.51,-13.73,0,*46
1534975504.75,25028,22.19,74630.8,5.89,-6.73,-13.73,0,*40
1534975506.02,25029,22.19,74630.5,5.89,-6.93,-13.87,0,*44
1534975507.25,25030,22.19,74628.8,5.91,-7.19,-13.97,0,*47
1534975508.53,25031,22.19,74628.5,5.89,-7.57,-14.01,0,*4D
1534975509.8,25032,22.19,74628.5,5.89,-7.91,-14.01,0,*44
1534975511.02,25033,22.19,74626.5,5.91,-7.95,-13.69,0,*41
1534975512.26,25034,22.19,74628.0,5.89,-8.03,-13.69,0,*4F
1534975513.48,25035,22.19,74628.5,5.89,-8.45,-13.73,0,*47
1534975514.68,25036,22.19,74630.0,5.91,-8.41,-13.65,0,*4E
1534975515.88,25037,22.19,74630.3,5.91,-8.55,-13.51,0,*4D
1534975517.08,25038,22.19,74628.5,5.91,-9.01,-13.93,0,*4C
1534975518.28,25039,22.19,74632.8,5.91,-9.19,-13.93,0,*44
1534975519.55,25040,22.19,74634.3,5.89,-9.49,-14.01,0,*4A
1534975520.77,25041,22.19,74630.8,5.91,-9.57,-13.93,0,*41
1534975521.98,25042,22.19,74622.5,5.91,-9.49,-13.69,0,*48
1534975523.24,25043,22.19,74618.3,5.91,-9.37,-13.33,0,*4F
1534975524.48,25044,22.19,74614.0,5.89,-9.53,-13.43,0,*44
1534975525.7,25045,22.19,74616.0,5.91,-9.83,-13.51,0,*42
1534975526.93,25046,22.19,74612.3,5.91,-10.19,-13.83,0,*75
1534975528.16,25047,22.19,74604.5,5.91,-10.27,-13.83,0,*79
1534975529.38,25048,22.19,74604.5,5.91,-10.41,-13.93,0,*77
1534975530.61,25049,22.19,74610.5,5.91,-10.41,-13.69,0,*73
1534975531.86,25050,22.19,74606.5,5.89,-10.57,-13.87,0,*75
1534975533.11,25051,22.19,74608.3,5.91,-10.71,-13.83,0,*7D
1534975534.37,25052,22.19,74612.3,5.91,-10.67,-13.83,0,*79
1534975535.62,25053,22.19,74618.0,5.89,-10.75,-13.69,0,*76
1534975536.87,25054,22.19,74612.3,5.91,-10.79,-13.61,0,*7C
1534975538.08,25055,22.19,74608.8,5.91,-10.97,-13.69,0,*75
1534975539.28,25056,22.19,74614.5,5.91,-11.11,-13.65,0,*75
1534975540.51,25057,22.19,74618.5,5.91,-11.11,-13.61,0,*70
1534975541.72,25058,22.19,74618.8,5.91,-11.11,-13.65,0,*7B
1534975542.97,25059,22.19,74614.5,5.89,-11.07,-13.65,0,*74
1534975544.18,25060,22.19,74616.5,5.91,-10.93,-13.51,0,*7C
1534975545.41,25061,22.19,74614.5,5.91,-10.93,-13.61,0,*7E
1534975546.63,25062,22.19,74618.0,5.91,-10.71,-13.47,0,*75
1534975547.86,25063,22.19,74620.0,5.89,-10.49,-13.43,0,*72
1534975549.07,25064,22.19,74618.5,5.91,-10.27,-13.19,0,*7B
1534975550.32,25065,22.19,74620.0,5.89,-10.31,-13.29,0,*77
1534975551.54,25066,22.19,74620.0,5.89,-10.35,-13.43,0,*7C
1534975552.75,25067,22.19,74622.0,5.91,-10.35,-13.43,0,*74
1534975553.98,25068,22.19,74620.5,5.89,-10.35,-13.51,0,*71
1534975555.2,25069,22.19,74618.5,5.91,-10.19,-13.19,0,*7B
1534975556.42,25070,22.19,74620.5,5.89,-10.31,-13.23,0,*79
1534975557.65,25071,22.19,74624.0,5.89,-10.35,-13.11,0,*7D
1534975558.86,25072,22.19,74620.5,5.91,-10.45,-12.93,0,*7B
1534975560.09,25073,22.19,74628.8,5.89,-10.57,-12.89,0,*7B
1534975561.37,25074,22.19,74626.0,5.89,-10.63,-12.83,0,*71
1534975562.65,25075,22.19,74624.5,5.89,-10.71,-12.57,0,*7A
1534975563.9,25076,22.19,74626.0,5.89,-10.57,-12.65,0,*7C
1534975565.16,25077,22.19,74624.8,5.89,-10.57,-12.71,0,*78
1534975566.41,25078,22.19,74626.0,5.89,-10.45,-12.83,0,*79
1534975567.65,25079,22.19,74624.3,5.89,-10.31,-13.01,0,*70
1534975568.88,25080,22.19,74624.0,5.89,-10.31,-13.15,0,*73
1534975570.1,25081,22.19,74628.5,5.89,-10.19,-13.15,0,*78
1534975571.33,25082,22.19,74628.3,5.89,-10.19,-13.43,0,*78
1534975572.55,25083,22.19,74628.8,5.89,-10.31,-13.73,0,*70
1534975573.8,25084,22.19,74626.3,5.85,-10.49,-14.01,0,*76
1534975575.04,25085,22.19,74626.5,5.85,-10.49,-14.05,0,*73
1534975576.28,25086,22.19,74628.8,5.85,-10.63,-14.15,0,*79
1534975577.53,25087,22.19,74628.3,5.85,-10.67,-14.15,0,*7C
1534975578.78,25088,22.19,74628.5,5.85,-10.63,-14.15,0,*77
1534975580.03,25089,22.19,74626.5,5.83,-10.63,-14.05,0,*71
1534975581.3,25090,22.19,74628.5,5.85,-10.67,-14.05,0,*7B
1534975582.49,25091,22.19,74628.8,5.83,-10.89,-14.19,0,*71
1534975583.71,25092,22.19,74628.8,5.85,-10.89,-14.19,0,*74
1534975584.97,25093,22.19,74632.8,5.85,-10.79,-14.05,0,*77
1534975586.24,25094,22.19,74626.8,5.85,-10.67,-13.79,0,*73
1534975587.49,25095,22.19,74628.3,5.83,-10.75,-14.01,0,*7F
1534975588.73,25096,22.19,74626.5,5.83,-10.67,-13.79,0,*77
1534975590.0,25097,22.19,74626.8,5.85,-10.79,-14.01,0,*77
1534975591.24,25098,22.19,74626.0,5.85,-10.67,-13.93,0,*7B
1534975592.51,25099,22.19,74626.3,5.85,-10.63,-13.79,0,*7A
1534975593.75,25100,22.19,74624.5,5.85,-10.89,-14.01,0,*77
1534975594.99,25101,22.19,74624.3,5.85,-10.89,-14.05,0,*72
1534975596.21,25102,22.19,74624.5,5.83,-10.89,-14.05,0,*77
1534975597.46,25103,22.19,74626.3,5.83,-10.79,-14.05,0,*79
1534975598.7,25104,22.19,74624.5,5.85,-10.93,-14.05,0,*7C
1534975599.96,25105,22.19,74620.8,5.85,-10.79,-13.79,0,*75
1534975601.17,25106,22.19,74622.5,5.83,-10.79,-13.69,0,*71
1534975602.41,25107,22.19,74622.0,5.85,-10.93,-13.79,0,*73
1534975603.65,25108,22.19,74622.3,5.85,-11.07,-13.93,0,*74
1534975604.91,25109,22.19,74620.3,5.85,-11.07,-13.79,0,*71
1534975606.11,25110,22.19,74622.0,5.85,-11.19,-13.93,0,*72
1534975607.35,25111,22.19,74622.5,5.85,-11.11,-13.79,0,*7F
1534975608.59,25112,22.19,74622.3,5.85,-11.23,-14.01,0,*75
1534975609.83,25113,22.19,74626.0,5.83,-11.33,-13.79,0,*7B
1534975611.06,25114,22.19,74620.8,5.83,-11.23,-13.61,0,*74
1534975612.25,25115,22.19,74620.3,5.83,-11.23,-13.43,0,*75
1534975613.5,25116,22.19,74618.5,5.83,-11.33,-13.29,0,*7B
1534975614.74,25117,22.19,74618.3,5.83,-11.33,-13.29,0,*7A
1534975615.99,25118,22.19,74620.0,5.83,-11.51,-13.33,0,*7A
1534975617.21,25119,22.19,74622.5,5.83,-11.23,-13.01,0,*7F
1534975618.41,25120,22.19,74616.3,5.83,-11.23,-12.93,0,*7F
1534975619.64,25121,22.19,74624.3,5.83,-11.11,-12.71,0,*73
1534975620.88,25122,22.19,74620.3,5.85,-11.01,-12.61,0,*76
1534975622.13,25123,22.19,74622.8,5.83,-11.07,-12.61,0,*77
1534975623.35,25124,22.19,74620.8,5.83,-10.93,-12.61,0,*7C
1534975624.58,25125,22.19,74622.5,5.83,-10.75,-12.47,0,*71
1534975625.82,25126,22.19,74622.0,5.83,-10.75,-12.57,0,*73
1534975627.03,25127,22.19,74622.3,5.81,-10.53,-12.39,0,*7C
1534975628.27,25128,22.19,74624.5,5.81,-10.53,-12.61,0,*7E
1534975629.51,25129,22.19,74624.8,5.81,-10.53,-12.79,0,*76
1534975630.74,25130,22.19,74626.0,5.83,-10.41,-12.93,0,*7B
1534975631.94,25131,22.19,74624.0,5.83,-10.35,-12.89,0,*72
1534975633.13,25132,22.19,74626.3,5.83,-10.09,-12.89,0,*7E
1534975634.34,25133,22.19,74626.0,5.83,-10.05,-13.01,0,*72
1534975635.53,25134,22.19,74626.0,5.83,-10.09,-13.15,0,*7C
1534975636.72,25135,22.19,74628.0,5.83,-9.93,-13.19,0,*4A
1534975637.91,25136,22.19,74628.5,5.83,-10.19,-13.69,0,*74
1534975639.1,25137,22.19,74630.3,5.83,-10.23,-13.73,0,*77
1534975640.29,25138,22.19,74630.5,5.83,-9.93,-13.55,0,*4F
1534975641.49,25139,22.19,74630.5,5.83,-9.83,-13.47,0,*4C
1534975642.7,25140,22.19,74630.3,5.83,-9.93,-13.61,0,*47
1534975643.92,25141,22.19,74628.0,5.83,-9.97,-13.61,0,*42
1534975645.1,25142,22.19,74628.0,5.83,-9.97,-13.69,0,*49
1534975646.28,25143,22.19,74626.0,5.83,-10.05,-13.73,0,*70
1534975647.48,25144,22.19,74626.8,5.83,-10.19,-13.69,0,*71
1534975648.69,25145,22.19,74626.8,5.83,-10.27,-13.79,0,*7C
1534975649.88,25146,22.19,74628.0,5.83,-10.23,-13.69,0,*7A
1534975651.08,25147,22.19,74626.5,5.83,-10.19,-13.55,0,*7D
1534975652.3,25148,22.19,74622.5,5.83,-10.41,-13.69,0,*70
1534975653.51,25149,22.19,74622.5,5.81,-10.45,-13.73,0,*7C
1534975654.73,25150,22.19,74624.0,5.83,-10.35,-13.61,0,*72
1534975655.93,25151,22.19,74626.0,5.83,-10.35,-13.43,0,*73
1534975657.15,25152,22.19,74626.5,5.83,-10.41,-13.43,0,*73
1534975658.37,25153,22.19,74624.5,5.81,-10.57,-13.65,0,*73
1534975659.6,25154,22.19,74624.3,5.81,-10.85,-13.79,0,*76
1534975660.84,25155,22.19,74626.8,5.81,-11.11,-14.05,0,*77
1534975662.1,25156,22.19,74622.8,5.81,-11.07,-13.83,0,*7A
1534975663.36,25157,22.19,74622.3,5.79,-11.07,-13.97,0,*79
1534975664.59,25158,22.19,74622.5,5.81,-11.11,-13.83,0,*73
1534975665.83,25159,22.19,74622.5,5.81,-11.29,-14.11,0,*75
1534975667.08,25160,22.19,74624.0,5.81,-11.29,-14.11,0,*7F
1534975668.29,25161,22.19,74622.5,5.81,-11.23,-14.11,0,*74
1534975669.53,25162,22.19,74620.3,5.81,-11.15,-14.05,0,*77
1534975670.78,25163,22.19,74618.8,5.81,-11.23,-14.05,0,*73
1534975672.01,25164,22.19,74622.3,5.81,-11.37,-14.11,0,*74
1534975673.2,25165,22.19,74616.5,5.79,-11.41,-14.11,0,*73
1534975674.47,25166,22.19,74618.5,5.81,-11.37,-14.05,0,*73
1534975675.72,25167,22.19,74622.0,5.79,-11.29,-13.83,0,*73
1534975676.93,25168,22.19,74616.8,5.79,-11.23,-13.79,0,*73
1534975678.17,25169,22.19,74616.0,5.81,-11.23,-13.83,0,*70
1534975679.39,25170,22.19,74616.3,5.79,-11.29,-13.73,0,*7A
1534975680.63,25171,22.19,74616.5,5.79,-11.29,-13.79,0,*71
1534975681.87,25172,22.19,74620.8,5.79,-11.51,-13.97,0,*7D
1534975683.15,25173,22.19,74618.3,5.77,-11.55,-14.01,0,*7E
1534975684.37,25174,22.19,74618.5,5.79,-11.41,-13.83,0,*7F
1534975685.58,25175,22.19,74620.0,5.79,-11.37,-13.65,0,*77
1534975686.82,25176,22.19,74622.0,5.77,-11.45,-13.79,0,*72
1534975688.08,25177,22.19,74620.8,5.77,-11.55,-13.79,0,*72
1534975689.34,25178,22.19,74620.3,5.77,-11.55,-13.79,0,*7D
1534975690.58,25179,22.19,74622.8,5.75,-11.63,-13.83,0,*7E
1534975691.82,25180,22.19,74620.0,5.77,-11.55,-13.69,0,*7B
1534975693.04,25181,22.19,74620.3,5.77,-11.45,-13.69,0,*7B
1534975694.29,25182,22.19,74620.5,5.77,-11.29,-13.55,0,*7D
1534975695.53,25183,22.19,74622.3,5.77,-11.29,-13.55,0,*7C
1534975696.78,25184,22.19,74620.8,5.75,-11.33,-13.61,0,*75
1534975697.97,25185,22.19,74620.0,5.75,-11.15,-13.55,0,*77
1534975699.16,25186,22.19,74622.3,5.75,-10.93,-13.47,0,*78
1534975700.4,25187,22.19,74620.8,5.75,-10.75,-13.29,0,*79
1534975701.67,25188,22.19,74622.5,5.77,-10.63,-13.29,0,*73
1534975702.86,25189,22.19,74620.8,5.75,-10.93,-13.43,0,*73
1534975704.05,25190,22.19,74618.0,5.75,-10.93,-13.47,0,*7F
1534975705.25,25191,22.19,74618.3,5.75,-11.01,-13.55,0,*77